Time,TemperatureF,DewpointF,PressureIn,WindDirection,WindDirectionDegrees,WindSpeedMPH,WindSpeedGustMPH,Humidity,HourlyPrecipIn,Conditions,Clouds,dailyrainin,SoftwareType,DateUTC
2013-02-11 00:00:00,35.2,32.6,30.02,NW,325,0.0,0.0,90,0.00,,,0.00,Wunderground v.1.15,2013-02-11 08:00:00,
2013-02-11 00:06:00,35.3,32.7,30.02,NW,326,0.0,0.0,90,0.00,,,0.00,Wunderground v.1.15,2013-02-11 08:06:00,
2013-02-11 00:12:00,35.5,32.6,30.02,NW,326,0.0,0.0,89,0.00,,,0.00,Wunderground v.1.15,2013-02-11 08:12:00,
2013-02-11 00:18:00,35.6,32.7,30.02,NW,322,1.0,5.0,89,0.00,,,0.00,Wunderground v.1.15,2013-02-11 08:18:00,
2013-02-11 00:24:00,35.9,33.0,30.02,NNE,13,3.0,11.0,89,0.00,,,0.00,Wunderground v.1.15,2013-02-11 08:24:00,
2013-02-11 00:30:00,35.9,32.1,30.02,ENE,59,5.0,5.0,86,0.00,,,0.00,Wunderground v.1.15,2013-02-11 08:30:00,
2013-02-11 00:36:00,35.6,31.8,30.02,ENE,61,2.0,5.0,86,0.00,,,0.00,Wunderground v.1.15,2013-02-11 08:36:00,
2013-02-11 00:42:00,35.5,32.0,30.02,SE,130,1.0,3.0,87,0.00,,,0.00,Wunderground v.1.15,2013-02-11 08:42:00,
2013-02-11 00:48:00,35.2,32.0,30.02,SSE,167,2.0,3.0,88,0.00,,,0.00,Wunderground v.1.15,2013-02-11 08:48:00,
2013-02-11 00:54:00,35.0,32.1,30.02,South,191,3.0,3.0,89,0.00,,,0.00,Wunderground v.1.15,2013-02-11 08:54:00,
2013-02-11 01:00:00,34.9,32.3,30.02,South,191,1.0,1.0,90,0.00,,,0.00,Wunderground v.1.15,2013-02-11 09:00:00,
2013-02-11 01:06:00,34.7,32.1,30.02,South,191,0.0,1.0,90,0.00,,,0.00,Wunderground v.1.15,2013-02-11 09:06:00,
2013-02-11 01:12:00,34.6,32.0,30.02,South,191,0.0,0.0,90,0.00,,,0.00,Wunderground v.1.15,2013-02-11 09:12:00,
2013-02-11 01:18:00,34.4,31.8,30.02,South,191,0.0,0.0,90,0.00,,,0.00,Wunderground v.1.15,2013-02-11 09:18:00,
2013-02-11 01:24:00,34.3,31.9,30.02,South,191,0.0,0.0,91,0.00,,,0.00,Wunderground v.1.15,2013-02-11 09:24:00,
2013-02-11 01:30:00,34.1,31.7,30.02,South,191,0.0,2.0,91,0.00,,,0.00,Wunderground v.1.15,2013-02-11 09:30:00,
2013-02-11 01:36:00,34.0,31.9,30.02,South,191,0.0,2.0,92,0.00,,,0.00,Wunderground v.1.15,2013-02-11 09:36:00,
2013-02-11 01:42:00,34.0,31.9,30.02,South,191,1.0,3.0,92,0.00,,,0.00,Wunderground v.1.15,2013-02-11 09:42:00,
2013-02-11 01:48:00,33.7,31.9,30.02,South,191,2.0,3.0,93,0.00,,,0.00,Wunderground v.1.15,2013-02-11 09:48:00,
2013-02-11 01:54:00,33.7,31.9,30.02,South,191,1.0,2.0,93,0.00,,,0.00,Wunderground v.1.15,2013-02-11 09:54:00,
2013-02-11 02:00:00,33.7,31.9,30.02,South,191,1.0,1.0,93,0.00,,,0.00,Wunderground v.1.15,2013-02-11 10:00:00,
2013-02-11 02:06:00,33.7,31.9,30.02,South,191,1.0,1.0,93,0.00,,,0.00,Wunderground v.1.15,2013-02-11 10:06:00,
2013-02-11 02:12:00,33.5,31.7,30.02,South,191,0.0,0.0,93,0.00,,,0.00,Wunderground v.1.15,2013-02-11 10:12:00,
2013-02-11 02:18:00,33.5,31.7,30.02,South,191,0.0,0.0,93,0.00,,,0.00,Wunderground v.1.15,2013-02-11 10:18:00,
2013-02-11 02:24:00,33.5,31.7,30.02,South,191,0.0,0.0,93,0.00,,,0.00,Wunderground v.1.15,2013-02-11 10:24:00,
2013-02-11 02:30:00,33.5,31.7,30.01,South,191,0.0,0.0,93,0.00,,,0.00,Wunderground v.1.15,2013-02-11 10:30:00,
2013-02-11 02:36:00,33.4,31.6,30.01,South,191,0.0,0.0,93,0.00,,,0.00,Wunderground v.1.15,2013-02-11 10:36:00,
2013-02-11 02:42:00,33.1,31.3,30.01,South,191,0.0,0.0,93,0.00,,,0.00,Wunderground v.1.15,2013-02-11 10:42:00,
2013-02-11 02:48:00,33.1,31.3,30.02,South,191,0.0,0.0,93,0.00,,,0.00,Wunderground v.1.15,2013-02-11 10:48:00,
2013-02-11 02:54:00,33.1,31.3,30.02,South,191,0.0,0.0,93,0.00,,,0.00,Wunderground v.1.15,2013-02-11 10:54:00,
2013-02-11 03:00:00,33.1,31.0,30.02,South,191,0.0,0.0,92,0.00,,,0.00,Wunderground v.1.15,2013-02-11 11:00:00,
2013-02-11 03:06:00,33.1,31.0,30.02,South,191,0.0,0.0,92,0.00,,,0.00,Wunderground v.1.15,2013-02-11 11:06:00,
2013-02-11 03:12:00,32.9,30.6,30.02,South,191,0.0,0.0,91,0.00,,,0.00,Wunderground v.1.15,2013-02-11 11:12:00,
2013-02-11 03:18:00,32.8,30.2,30.02,South,191,0.0,0.0,90,0.00,,,0.00,Wunderground v.1.15,2013-02-11 11:18:00,
2013-02-11 03:24:00,32.7,30.1,30.02,South,191,0.0,0.0,90,0.00,,,0.00,Wunderground v.1.15,2013-02-11 11:24:00,
2013-02-11 03:30:00,32.7,29.8,30.02,South,191,0.0,0.0,89,0.00,,,0.00,Wunderground v.1.15,2013-02-11 11:30:00,
2013-02-11 03:36:00,32.8,29.6,30.02,South,191,0.0,0.0,88,0.00,,,0.00,Wunderground v.1.15,2013-02-11 11:36:00,
2013-02-11 03:42:00,32.9,29.5,30.02,SW,230,1.0,3.0,87,0.00,,,0.00,Wunderground v.1.15,2013-02-11 11:42:00,
2013-02-11 03:48:00,33.1,29.7,30.02,NNW,340,1.0,3.0,87,0.00,,,0.00,Wunderground v.1.15,2013-02-11 11:48:00,
2013-02-11 03:54:00,33.4,29.4,30.02,NW,320,2.0,2.0,85,0.00,,,0.00,Wunderground v.1.15,2013-02-11 11:54:00,
2013-02-11 04:00:00,33.4,29.4,30.02,NW,323,1.0,2.0,85,0.00,,,0.00,Wunderground v.1.15,2013-02-11 12:00:00,
2013-02-11 04:06:00,33.2,29.2,30.02,North,0,1.0,2.0,85,0.00,,,0.00,Wunderground v.1.15,2013-02-11 12:06:00,
2013-02-11 04:12:00,33.1,29.1,30.02,North,0,0.0,1.0,85,0.00,,,0.00,Wunderground v.1.15,2013-02-11 12:12:00,
2013-02-11 04:18:00,32.8,28.8,30.04,North,0,0.0,1.0,85,0.00,,,0.00,Wunderground v.1.15,2013-02-11 12:18:00,
2013-02-11 04:24:00,32.7,28.7,30.04,North,0,0.0,0.0,85,0.00,,,0.00,Wunderground v.1.15,2013-02-11 12:24:00,
2013-02-11 04:30:00,32.5,28.5,30.04,North,357,0.0,1.0,85,0.00,,,0.00,Wunderground v.1.15,2013-02-11 12:30:00,
2013-02-11 04:36:00,32.5,28.2,30.04,NNW,339,1.0,3.0,84,0.00,,,0.00,Wunderground v.1.15,2013-02-11 12:36:00,
2013-02-11 04:42:00,32.4,28.4,30.04,NNW,346,2.0,2.0,85,0.00,,,0.00,Wunderground v.1.15,2013-02-11 12:42:00,
2013-02-11 04:48:00,32.5,28.5,30.05,NNW,329,2.0,5.0,85,0.00,,,0.00,Wunderground v.1.15,2013-02-11 12:48:00,
2013-02-11 04:54:00,32.5,28.8,30.05,NNW,329,2.0,3.0,86,0.00,,,0.00,Wunderground v.1.15,2013-02-11 12:54:00,
2013-02-11 05:00:00,32.5,29.1,30.05,NNW,330,2.0,2.0,87,0.00,,,0.00,Wunderground v.1.15,2013-02-11 13:00:00,
2013-02-11 05:06:00,32.4,29.0,30.05,NNW,330,1.0,3.0,87,0.00,,,0.00,Wunderground v.1.15,2013-02-11 13:06:00,
2013-02-11 05:12:00,32.1,28.7,30.05,NNW,332,2.0,2.0,87,0.00,,,0.00,Wunderground v.1.15,2013-02-11 13:12:00,
2013-02-11 05:18:00,31.9,28.8,30.06,NNW,337,2.0,4.0,88,0.00,,,0.00,Wunderground v.1.15,2013-02-11 13:18:00,
2013-02-11 05:24:00,31.8,28.7,30.06,North,350,3.0,5.0,88,0.00,,,0.00,Wunderground v.1.15,2013-02-11 13:24:00,
2013-02-11 05:30:00,31.5,28.6,30.07,North,350,2.0,2.0,89,0.00,,,0.00,Wunderground v.1.15,2013-02-11 13:30:00,
2013-02-11 05:36:00,31.0,28.1,30.07,North,352,1.0,2.0,89,0.00,,,0.00,Wunderground v.1.15,2013-02-11 13:36:00,
2013-02-11 05:42:00,30.9,28.3,30.07,North,352,2.0,2.0,90,0.00,,,0.00,Wunderground v.1.15,2013-02-11 13:42:00,
2013-02-11 05:48:00,30.7,28.4,30.08,North,352,1.0,2.0,91,0.00,,,0.00,Wunderground v.1.15,2013-02-11 13:48:00,
2013-02-11 05:54:00,30.6,28.6,30.08,North,352,1.0,1.0,92,0.00,,,0.00,Wunderground v.1.15,2013-02-11 13:54:00,
2013-02-11 06:00:00,30.3,28.5,30.08,North,352,1.0,2.0,93,0.00,,,0.00,Wunderground v.1.15,2013-02-11 14:00:00,
2013-02-11 06:06:00,30.1,28.3,30.08,North,350,2.0,2.0,93,0.00,,,0.00,Wunderground v.1.15,2013-02-11 14:06:00,
2013-02-11 06:12:00,30.1,28.6,30.08,NNW,343,2.0,2.0,94,0.00,,,0.00,Wunderground v.1.15,2013-02-11 14:12:00,
2013-02-11 06:18:00,30.1,28.6,30.10,NNW,343,2.0,3.0,94,0.00,,,0.00,Wunderground v.1.15,2013-02-11 14:18:00,
2013-02-11 06:24:00,30.1,28.8,30.10,NNW,347,2.0,3.0,95,0.00,,,0.00,Wunderground v.1.15,2013-02-11 14:24:00,
2013-02-11 06:30:00,30.0,28.7,30.11,NNW,342,3.0,5.0,95,0.00,,,0.00,Wunderground v.1.15,2013-02-11 14:30:00,
2013-02-11 06:36:00,30.1,29.1,30.11,North,354,3.0,5.0,96,0.00,,,0.00,Wunderground v.1.15,2013-02-11 14:36:00,
2013-02-11 06:42:00,30.1,29.1,30.11,NNW,339,3.0,5.0,96,0.00,,,0.00,Wunderground v.1.15,2013-02-11 14:42:00,
2013-02-11 06:48:00,30.1,29.1,30.11,North,0,4.0,5.0,96,0.00,,,0.00,Wunderground v.1.15,2013-02-11 14:48:00,
2013-02-11 06:54:00,30.4,29.4,30.11,North,349,4.0,7.0,96,0.00,,,0.00,Wunderground v.1.15,2013-02-11 14:54:00,
2013-02-11 07:00:00,30.9,29.9,30.12,North,353,5.0,5.0,96,0.00,,,0.00,Wunderground v.1.15,2013-02-11 15:00:00,
2013-02-11 07:06:00,31.2,30.2,30.12,North,356,3.0,5.0,96,0.00,,,0.00,Wunderground v.1.15,2013-02-11 15:06:00,
2013-02-11 07:12:00,31.3,30.3,30.12,NNW,337,3.0,7.0,96,0.00,,,0.00,Wunderground v.1.15,2013-02-11 15:12:00,
2013-02-11 07:18:00,31.2,29.7,30.13,NNW,342,5.0,7.0,94,0.00,,,0.00,Wunderground v.1.15,2013-02-11 15:18:00,
2013-02-11 07:24:00,31.5,29.7,30.13,NNW,342,5.0,5.0,93,0.00,,,0.00,Wunderground v.1.15,2013-02-11 15:24:00,
2013-02-11 07:30:00,31.9,29.8,30.12,NNW,330,5.0,5.0,92,0.00,,,0.00,Wunderground v.1.15,2013-02-11 15:30:00,
2013-02-11 07:36:00,32.5,30.2,30.12,NNW,340,3.0,5.0,91,0.00,,,0.00,Wunderground v.1.15,2013-02-11 15:36:00,
2013-02-11 07:42:00,33.4,30.8,30.12,NNW,340,3.0,6.0,90,0.00,,,0.00,Wunderground v.1.15,2013-02-11 15:42:00,
2013-02-11 07:48:00,34.1,31.2,30.13,North,349,3.0,6.0,89,0.00,,,0.00,Wunderground v.1.15,2013-02-11 15:48:00,
2013-02-11 07:54:00,35.0,31.8,30.13,North,359,3.0,5.0,88,0.00,,,0.00,Wunderground v.1.15,2013-02-11 15:54:00,
2013-02-11 08:00:00,35.9,31.8,30.13,North,3,4.0,6.0,85,0.00,,,0.00,Wunderground v.1.15,2013-02-11 16:00:00,
2013-02-11 08:06:00,36.5,31.5,30.13,WNW,296,5.0,6.0,82,0.00,,,0.00,Wunderground v.1.15,2013-02-11 16:06:00,
2013-02-11 08:12:00,37.0,31.7,30.13,North,0,6.0,6.0,81,0.00,,,0.00,Wunderground v.1.15,2013-02-11 16:12:00,
2013-02-11 08:18:00,37.3,31.4,30.13,NNE,23,6.0,7.0,79,0.00,,,0.00,Wunderground v.1.15,2013-02-11 16:18:00,
2013-02-11 08:24:00,37.6,30.1,30.13,North,0,5.0,9.0,74,0.00,,,0.00,Wunderground v.1.15,2013-02-11 16:24:00,
2013-02-11 08:30:00,37.9,27.9,30.14,North,0,7.0,10.0,67,0.00,,,0.00,Wunderground v.1.15,2013-02-11 16:30:00,
2013-02-11 08:36:00,38.2,24.3,30.14,North,6,6.0,10.0,57,0.00,,,0.00,Wunderground v.1.15,2013-02-11 16:36:00,
2013-02-11 08:42:00,38.5,23.7,30.14,NNE,21,7.0,7.0,55,0.00,,,0.00,Wunderground v.1.15,2013-02-11 16:42:00,
2013-02-11 08:48:00,38.8,21.3,30.14,NE,34,7.0,7.0,49,0.00,,,0.00,Wunderground v.1.15,2013-02-11 16:48:00,
2013-02-11 08:54:00,38.8,21.7,30.14,ENE,68,6.0,7.0,50,0.00,,,0.00,Wunderground v.1.15,2013-02-11 16:54:00,
2013-02-11 09:00:00,38.9,21.3,30.14,NNE,17,6.0,6.0,49,0.00,,,0.00,Wunderground v.1.15,2013-02-11 17:00:00,
2013-02-11 09:06:00,39.5,20.9,30.14,NE,44,7.0,10.0,47,0.00,,,0.00,Wunderground v.1.15,2013-02-11 17:06:00,
2013-02-11 09:12:00,39.5,21.4,30.14,North,11,7.0,9.0,48,0.00,,,0.00,Wunderground v.1.15,2013-02-11 17:12:00,
2013-02-11 09:18:00,39.8,19.6,30.15,NE,51,8.0,12.0,44,0.00,,,0.00,Wunderground v.1.15,2013-02-11 17:18:00,
2013-02-11 09:24:00,39.5,18.3,30.15,North,3,9.0,12.0,42,0.00,,,0.00,Wunderground v.1.15,2013-02-11 17:24:00,
2013-02-11 09:30:00,40.1,19.4,30.15,North,6,9.0,16.0,43,0.00,,,0.00,Wunderground v.1.15,2013-02-11 17:30:00,
2013-02-11 09:36:00,40.5,19.7,30.15,North,11,10.0,16.0,43,0.00,,,0.00,Wunderground v.1.15,2013-02-11 17:36:00,
2013-02-11 09:42:00,40.5,18.0,30.15,NNE,18,9.0,12.0,40,0.00,,,0.00,Wunderground v.1.15,2013-02-11 17:42:00,
2013-02-11 09:48:00,40.5,16.9,30.15,ENE,59,11.0,12.0,38,0.00,,,0.00,Wunderground v.1.15,2013-02-11 17:48:00,
2013-02-11 09:54:00,40.5,17.5,30.15,NE,51,10.0,11.0,39,0.00,,,0.00,Wunderground v.1.15,2013-02-11 17:54:00,
2013-02-11 10:00:00,40.8,18.9,30.15,NNE,13,9.0,15.0,41,0.00,,,0.00,Wunderground v.1.15,2013-02-11 18:00:00,
2013-02-11 10:06:00,40.3,17.3,30.15,North,0,10.0,15.0,39,0.00,,,0.00,Wunderground v.1.15,2013-02-11 18:06:00,
2013-02-11 10:12:00,41.1,18.0,30.15,NNE,24,10.0,15.0,39,0.00,,,0.00,Wunderground v.1.15,2013-02-11 18:12:00,
2013-02-11 10:18:00,41.1,16.8,30.15,NE,35,10.0,15.0,37,0.00,,,0.00,Wunderground v.1.15,2013-02-11 18:18:00,
2013-02-11 10:24:00,41.6,18.4,30.15,NNE,17,10.0,20.0,39,0.00,,,0.00,Wunderground v.1.15,2013-02-11 18:24:00,
2013-02-11 10:30:00,41.8,17.4,30.15,North,354,9.0,9.0,37,0.00,,,0.00,Wunderground v.1.15,2013-02-11 18:30:00,
2013-02-11 10:36:00,41.9,17.5,30.15,North,0,10.0,18.0,37,0.00,,,0.00,Wunderground v.1.15,2013-02-11 18:36:00,
2013-02-11 10:42:00,42.2,16.5,30.15,NNE,16,11.0,11.0,35,0.00,,,0.00,Wunderground v.1.15,2013-02-11 18:42:00,
2013-02-11 10:48:00,41.9,16.2,30.15,NNE,27,10.0,16.0,35,0.00,,,0.00,Wunderground v.1.15,2013-02-11 18:48:00,
2013-02-11 10:54:00,41.6,15.9,30.15,ENE,58,10.0,15.0,35,0.00,,,0.00,Wunderground v.1.15,2013-02-11 18:54:00,
2013-02-11 11:00:00,41.8,15.4,30.15,NNE,23,10.0,14.0,34,0.00,,,0.00,Wunderground v.1.15,2013-02-11 19:00:00,
2013-02-11 11:06:00,41.8,14.8,30.15,North,0,11.0,14.0,33,0.00,,,0.00,Wunderground v.1.15,2013-02-11 19:06:00,
2013-02-11 11:12:00,42.2,15.1,30.15,NNE,24,11.0,16.0,33,0.00,,,0.00,Wunderground v.1.15,2013-02-11 19:12:00,
2013-02-11 11:18:00,42.3,15.9,30.15,NNE,30,10.0,16.0,34,0.00,,,0.00,Wunderground v.1.15,2013-02-11 19:18:00,
2013-02-11 11:24:00,43.3,16.8,30.15,North,3,10.0,14.0,34,0.00,,,0.00,Wunderground v.1.15,2013-02-11 19:24:00,
2013-02-11 11:30:00,43.8,17.9,30.13,NNE,23,10.0,10.0,35,0.00,,,0.00,Wunderground v.1.15,2013-02-11 19:30:00,
2013-02-11 11:36:00,43.8,16.5,30.13,NE,41,9.0,11.0,33,0.00,,,0.00,Wunderground v.1.15,2013-02-11 19:36:00,
2013-02-11 11:42:00,42.8,15.6,30.13,NNE,21,10.0,10.0,33,0.00,,,0.00,Wunderground v.1.15,2013-02-11 19:42:00,
2013-02-11 11:48:00,43.1,15.9,30.13,North,6,9.0,14.0,33,0.00,,,0.00,Wunderground v.1.15,2013-02-11 19:48:00,
2013-02-11 11:54:00,43.3,16.1,30.13,North,0,10.0,10.0,33,0.00,,,0.00,Wunderground v.1.15,2013-02-11 19:54:00,
2013-02-11 12:00:00,44.2,16.9,30.12,North,7,10.0,12.0,33,0.00,,,0.00,Wunderground v.1.15,2013-02-11 20:00:00,
2013-02-11 12:06:00,44.2,14.7,30.12,North,349,10.0,17.0,30,0.00,,,0.00,Wunderground v.1.15,2013-02-11 20:06:00,
2013-02-11 12:12:00,43.8,14.3,30.12,NNW,333,11.0,12.0,30,0.00,,,0.00,Wunderground v.1.15,2013-02-11 20:12:00,
2013-02-11 12:18:00,44.2,14.7,30.12,North,352,12.0,14.0,30,0.00,,,0.00,Wunderground v.1.15,2013-02-11 20:18:00,
2013-02-11 12:24:00,43.9,15.2,30.12,North,0,11.0,11.0,31,0.00,,,0.00,Wunderground v.1.15,2013-02-11 20:24:00,
2013-02-11 12:30:00,43.5,15.5,30.12,NNW,340,9.0,9.0,32,0.00,,,0.00,Wunderground v.1.15,2013-02-11 20:30:00,
2013-02-11 12:36:00,43.9,14.4,30.12,NE,52,10.0,12.0,30,0.00,,,0.00,Wunderground v.1.15,2013-02-11 20:36:00,
2013-02-11 12:42:00,43.8,14.3,30.12,NNE,28,9.0,13.0,30,0.00,,,0.00,Wunderground v.1.15,2013-02-11 20:42:00,
2013-02-11 12:48:00,44.8,12.8,30.11,North,0,10.0,14.0,27,0.00,,,0.00,Wunderground v.1.15,2013-02-11 20:48:00,
2013-02-11 12:54:00,45.4,13.3,30.11,North,4,11.0,17.0,27,0.00,,,0.00,Wunderground v.1.15,2013-02-11 20:54:00,
2013-02-11 13:00:00,45.5,13.4,30.10,North,356,12.0,12.0,27,0.00,,,0.00,Wunderground v.1.15,2013-02-11 21:00:00,
2013-02-11 13:06:00,45.4,12.5,30.10,NNE,27,13.0,18.0,26,0.00,,,0.00,Wunderground v.1.15,2013-02-11 21:06:00,
2013-02-11 13:12:00,45.5,13.4,30.10,North,0,12.0,13.0,27,0.00,,,0.00,Wunderground v.1.15,2013-02-11 21:12:00,
2013-02-11 13:18:00,45.4,13.3,30.10,NE,54,10.0,17.0,27,0.00,,,0.00,Wunderground v.1.15,2013-02-11 21:18:00,
2013-02-11 13:24:00,44.9,12.0,30.10,NE,45,10.0,12.0,26,0.00,,,0.00,Wunderground v.1.15,2013-02-11 21:24:00,
2013-02-11 13:30:00,45.1,13.1,30.10,NNE,13,10.0,12.0,27,0.00,,,0.00,Wunderground v.1.15,2013-02-11 21:30:00,
2013-02-11 13:36:00,45.4,12.5,30.10,NNE,25,9.0,12.0,26,0.00,,,0.00,Wunderground v.1.15,2013-02-11 21:36:00,
2013-02-11 13:42:00,45.5,13.4,30.10,North,4,10.0,12.0,27,0.00,,,0.00,Wunderground v.1.15,2013-02-11 21:42:00,
2013-02-11 13:48:00,45.7,12.7,30.10,ENE,62,10.0,12.0,26,0.00,,,0.00,Wunderground v.1.15,2013-02-11 21:48:00,
2013-02-11 13:54:00,45.5,11.7,30.10,NNE,14,9.0,14.0,25,0.00,,,0.00,Wunderground v.1.15,2013-02-11 21:54:00,
2013-02-11 14:00:00,45.7,11.8,30.09,North,8,11.0,11.0,25,0.00,,,0.00,Wunderground v.1.15,2013-02-11 22:00:00,
2013-02-11 14:06:00,45.4,11.6,30.09,NNE,23,11.0,14.0,25,0.00,,,0.00,Wunderground v.1.15,2013-02-11 22:06:00,
2013-02-11 14:12:00,45.1,11.3,30.09,NE,40,12.0,12.0,25,0.00,,,0.00,Wunderground v.1.15,2013-02-11 22:12:00,
2013-02-11 14:18:00,45.4,11.6,30.10,NNW,328,10.0,12.0,25,0.00,,,0.00,Wunderground v.1.15,2013-02-11 22:18:00,
2013-02-11 14:24:00,45.8,12.8,30.10,NNE,24,10.0,16.0,26,0.00,,,0.00,Wunderground v.1.15,2013-02-11 22:24:00,
2013-02-11 14:30:00,46.0,13.0,30.11,North,354,8.0,8.0,26,0.00,,,0.00,Wunderground v.1.15,2013-02-11 22:30:00,
2013-02-11 14:36:00,46.4,13.3,30.11,North,3,7.0,10.0,26,0.00,,,0.00,Wunderground v.1.15,2013-02-11 22:36:00,
2013-02-11 14:42:00,46.5,11.6,30.11,NE,42,8.0,11.0,24,0.00,,,0.00,Wunderground v.1.15,2013-02-11 22:42:00,
2013-02-11 14:48:00,45.8,11.9,30.11,NNE,21,9.0,11.0,25,0.00,,,0.00,Wunderground v.1.15,2013-02-11 22:48:00,
2013-02-11 14:54:00,46.1,12.2,30.11,NE,45,10.0,16.0,25,0.00,,,0.00,Wunderground v.1.15,2013-02-11 22:54:00,
2013-02-11 15:00:00,45.4,11.6,30.11,North,8,11.0,11.0,25,0.00,,,0.00,Wunderground v.1.15,2013-02-11 23:00:00,
2013-02-11 15:06:00,45.4,10.7,30.11,ENE,58,11.0,13.0,24,0.00,,,0.00,Wunderground v.1.15,2013-02-11 23:06:00,
2013-02-11 15:12:00,45.4,11.6,30.11,NE,40,11.0,16.0,25,0.00,,,0.00,Wunderground v.1.15,2013-02-11 23:12:00,
2013-02-11 15:18:00,45.8,10.0,30.11,NNE,23,11.0,16.0,23,0.00,,,0.00,Wunderground v.1.15,2013-02-11 23:18:00,
2013-02-11 15:24:00,45.8,10.0,30.11,NNE,24,10.0,10.0,23,0.00,,,0.00,Wunderground v.1.15,2013-02-11 23:24:00,
2013-02-11 15:30:00,46.0,10.2,30.11,North,356,11.0,11.0,23,0.00,,,0.00,Wunderground v.1.15,2013-02-11 23:30:00,
2013-02-11 15:36:00,46.0,10.2,30.11,NE,56,10.0,14.0,23,0.00,,,0.00,Wunderground v.1.15,2013-02-11 23:36:00,
2013-02-11 15:42:00,46.0,9.2,30.11,NE,52,10.0,10.0,22,0.00,,,0.00,Wunderground v.1.15,2013-02-11 23:42:00,
2013-02-11 15:48:00,45.8,10.0,30.12,NNE,24,9.0,12.0,23,0.00,,,0.00,Wunderground v.1.15,2013-02-11 23:48:00,
2013-02-11 15:54:00,45.8,9.0,30.12,ENE,62,9.0,9.0,22,0.00,,,0.00,Wunderground v.1.15,2013-02-11 23:54:00,
2013-02-11 16:00:00,45.4,8.7,30.11,North,8,9.0,9.0,22,0.00,,,0.00,Wunderground v.1.15,2013-02-12 00:00:00,
2013-02-11 16:06:00,45.4,8.7,30.11,North,11,12.0,18.0,22,0.00,,,0.00,Wunderground v.1.15,2013-02-12 00:06:00,
2013-02-11 16:12:00,45.2,8.5,30.11,North,0,11.0,18.0,22,0.00,,,0.00,Wunderground v.1.15,2013-02-12 00:12:00,
2013-02-11 16:18:00,45.1,8.5,30.11,NNE,20,11.0,18.0,22,0.00,,,0.00,Wunderground v.1.15,2013-02-12 00:18:00,
2013-02-11 16:24:00,45.2,8.5,30.11,North,10,10.0,11.0,22,0.00,,,0.00,Wunderground v.1.15,2013-02-12 00:24:00,
2013-02-11 16:30:00,44.9,8.3,30.13,North,0,9.0,9.0,22,0.00,,,0.00,Wunderground v.1.15,2013-02-12 00:30:00,
2013-02-11 16:36:00,44.6,8.0,30.13,NNE,16,7.0,11.0,22,0.00,,,0.00,Wunderground v.1.15,2013-02-12 00:36:00,
2013-02-11 16:42:00,44.3,7.8,30.13,NE,48,7.0,12.0,22,0.00,,,0.00,Wunderground v.1.15,2013-02-12 00:42:00,
2013-02-11 16:48:00,44.2,7.7,30.13,NNE,30,9.0,12.0,22,0.00,,,0.00,Wunderground v.1.15,2013-02-12 00:48:00,
2013-02-11 16:54:00,44.1,7.6,30.13,North,11,10.0,14.0,22,0.00,,,0.00,Wunderground v.1.15,2013-02-12 00:54:00,
2013-02-11 17:00:00,43.9,7.4,30.14,NE,44,8.0,8.0,22,0.00,,,0.00,Wunderground v.1.15,2013-02-12 01:00:00,
2013-02-11 17:06:00,43.5,8.1,30.14,ENE,62,7.0,8.0,23,0.00,,,0.00,Wunderground v.1.15,2013-02-12 01:06:00,
2013-02-11 17:12:00,43.1,7.7,30.14,NE,41,6.0,9.0,23,0.00,,,0.00,Wunderground v.1.15,2013-02-12 01:12:00,
2013-02-11 17:18:00,42.8,7.5,30.16,NNE,23,7.0,12.0,23,0.00,,,0.00,Wunderground v.1.15,2013-02-12 01:18:00,
2013-02-11 17:24:00,42.5,8.2,30.16,NNE,30,6.0,7.0,24,0.00,,,0.00,Wunderground v.1.15,2013-02-12 01:24:00,
2013-02-11 17:30:00,42.3,8.0,30.16,NE,45,5.0,6.0,24,0.00,,,0.00,Wunderground v.1.15,2013-02-12 01:30:00,
2013-02-11 17:36:00,42.1,7.8,30.16,NE,45,6.0,10.0,24,0.00,,,0.00,Wunderground v.1.15,2013-02-12 01:36:00,
2013-02-11 17:42:00,41.8,7.6,30.16,NE,52,7.0,7.0,24,0.00,,,0.00,Wunderground v.1.15,2013-02-12 01:42:00,
2013-02-11 17:48:00,41.5,8.2,30.17,NE,52,6.0,9.0,25,0.00,,,0.00,Wunderground v.1.15,2013-02-12 01:48:00,
2013-02-11 17:54:00,41.2,8.8,30.17,NE,37,5.0,8.0,26,0.00,,,0.00,Wunderground v.1.15,2013-02-12 01:54:00,
2013-02-11 18:00:00,40.8,8.5,30.18,NNE,28,5.0,6.0,26,0.00,,,0.00,Wunderground v.1.15,2013-02-12 02:00:00,
2013-02-11 18:06:00,40.5,8.2,30.18,NE,42,5.0,6.0,26,0.00,,,0.00,Wunderground v.1.15,2013-02-12 02:06:00,
2013-02-11 18:12:00,40.3,8.1,30.18,North,11,4.0,5.0,26,0.00,,,0.00,Wunderground v.1.15,2013-02-12 02:12:00,
2013-02-11 18:18:00,40.1,8.7,30.18,NE,35,3.0,5.0,27,0.00,,,0.00,Wunderground v.1.15,2013-02-12 02:18:00,
2013-02-11 18:24:00,39.8,8.5,30.18,NE,37,1.0,2.0,27,0.00,,,0.00,Wunderground v.1.15,2013-02-12 02:24:00,
2013-02-11 18:30:00,39.5,8.2,30.18,NE,49,2.0,4.0,27,0.00,,,0.00,Wunderground v.1.15,2013-02-12 02:30:00,
2013-02-11 18:36:00,39.2,8.8,30.18,NE,54,3.0,6.0,28,0.00,,,0.00,Wunderground v.1.15,2013-02-12 02:36:00,
2013-02-11 18:42:00,38.9,8.5,30.18,NE,47,3.0,5.0,28,0.00,,,0.00,Wunderground v.1.15,2013-02-12 02:42:00,
2013-02-11 18:48:00,38.6,8.2,30.19,NE,41,3.0,5.0,28,0.00,,,0.00,Wunderground v.1.15,2013-02-12 02:48:00,
2013-02-11 18:54:00,38.3,8.8,30.19,NE,52,3.0,3.0,29,0.00,,,0.00,Wunderground v.1.15,2013-02-12 02:54:00,
2013-02-11 19:00:00,38.2,8.7,30.20,NE,42,3.0,4.0,29,0.00,,,0.00,Wunderground v.1.15,2013-02-12 03:00:00,
2013-02-11 19:06:00,37.9,9.2,30.20,NE,41,3.0,4.0,30,0.00,,,0.00,Wunderground v.1.15,2013-02-12 03:06:00,
2013-02-11 19:12:00,37.5,8.8,30.20,NNE,31,2.0,3.0,30,0.00,,,0.00,Wunderground v.1.15,2013-02-12 03:12:00,
2013-02-11 19:18:00,37.2,8.6,30.18,NNE,21,2.0,3.0,30,0.00,,,0.00,Wunderground v.1.15,2013-02-12 03:18:00,
2013-02-11 19:24:00,36.9,8.3,30.18,NNE,21,0.0,1.0,30,0.00,,,0.00,Wunderground v.1.15,2013-02-12 03:24:00,
2013-02-11 19:30:00,36.8,8.2,30.19,NNE,21,0.0,0.0,30,0.00,,,0.00,Wunderground v.1.15,2013-02-12 03:30:00,
2013-02-11 19:36:00,36.6,8.8,30.19,NNE,21,0.0,2.0,31,0.00,,,0.00,Wunderground v.1.15,2013-02-12 03:36:00,
2013-02-11 19:42:00,36.5,8.7,30.19,NNE,13,2.0,2.0,31,0.00,,,0.00,Wunderground v.1.15,2013-02-12 03:42:00,
2013-02-11 19:48:00,36.2,9.1,30.19,NNE,13,2.0,2.0,32,0.00,,,0.00,Wunderground v.1.15,2013-02-12 03:48:00,
2013-02-11 19:54:00,35.9,8.9,30.19,North,8,2.0,2.0,32,0.00,,,0.00,Wunderground v.1.15,2013-02-12 03:54:00,
2013-02-11 20:00:00,35.8,8.8,30.20,North,1,2.0,2.0,32,0.00,,,0.00,Wunderground v.1.15,2013-02-12 04:00:00,
2013-02-11 20:06:00,35.6,9.3,30.20,North,1,1.0,2.0,33,0.00,,,0.00,Wunderground v.1.15,2013-02-12 04:06:00,
2013-02-11 20:12:00,35.5,9.2,30.20,North,1,0.0,0.0,33,0.00,,,0.00,Wunderground v.1.15,2013-02-12 04:12:00,
2013-02-11 20:18:00,35.2,9.6,30.19,North,1,0.0,0.0,34,0.00,,,0.00,Wunderground v.1.15,2013-02-12 04:18:00,
2013-02-11 20:24:00,34.9,10.0,30.19,NNW,340,1.0,2.0,35,0.00,,,0.00,Wunderground v.1.15,2013-02-12 04:24:00,
2013-02-11 20:30:00,34.3,10.1,30.21,NNW,336,2.0,2.0,36,0.00,,,0.00,Wunderground v.1.15,2013-02-12 04:30:00,
2013-02-11 20:36:00,34.1,9.3,30.21,NNW,336,1.0,2.0,35,0.00,,,0.00,Wunderground v.1.15,2013-02-12 04:36:00,
2013-02-11 20:42:00,34.1,9.9,30.21,NNW,337,1.0,2.0,36,0.00,,,0.00,Wunderground v.1.15,2013-02-12 04:42:00,
2013-02-11 20:48:00,33.8,9.6,30.21,NNW,339,1.0,2.0,36,0.00,,,0.00,Wunderground v.1.15,2013-02-12 04:48:00,
2013-02-11 20:54:00,33.8,8.4,30.21,NNW,339,1.0,1.0,34,0.00,,,0.00,Wunderground v.1.15,2013-02-12 04:54:00,
2013-02-11 21:00:00,34.3,9.4,30.22,NNW,339,0.0,0.0,35,0.00,,,0.00,Wunderground v.1.15,2013-02-12 05:00:00,
2013-02-11 21:04:00,34.3,9.4,30.22,NNW,339,0.0,0.0,35,0.00,,,0.00,Wunderground v.1.15,2013-02-12 05:04:00,
2013-02-11 21:10:00,34.3,9.4,30.22,NNW,339,0.0,0.0,35,0.00,,,0.00,Wunderground v.1.15,2013-02-12 05:10:00,
2013-02-11 21:12:00,34.1,9.3,30.22,NNW,339,0.0,0.0,35,0.00,,,0.00,Wunderground v.1.15,2013-02-12 05:12:00,
2013-02-11 21:16:00,34.1,9.3,30.21,NNW,339,0.0,0.0,35,0.00,,,0.00,Wunderground v.1.15,2013-02-12 05:16:00,
2013-02-11 21:22:00,33.8,9.6,30.21,NNW,337,0.0,1.0,36,0.00,,,0.00,Wunderground v.1.15,2013-02-12 05:22:00,
2013-02-11 21:28:00,33.7,8.9,30.21,NW,326,1.0,2.0,35,0.00,,,0.00,Wunderground v.1.15,2013-02-12 05:28:00,
2013-02-11 21:34:00,33.7,8.9,30.21,NW,326,1.0,2.0,35,0.00,,,0.00,Wunderground v.1.15,2013-02-12 05:34:00,
2013-02-11 21:40:00,33.7,8.9,30.21,NW,315,1.0,3.0,35,0.00,,,0.00,Wunderground v.1.15,2013-02-12 05:40:00,
2013-02-11 21:46:00,33.5,10.0,30.22,NW,304,3.0,3.0,37,0.00,,,0.00,Wunderground v.1.15,2013-02-12 05:46:00,
2013-02-11 21:52:00,33.2,9.7,30.22,NW,304,4.0,5.0,37,0.00,,,0.00,Wunderground v.1.15,2013-02-12 05:52:00,
2013-02-11 21:58:00,33.1,9.6,30.22,NW,305,3.0,5.0,37,0.00,,,0.00,Wunderground v.1.15,2013-02-12 05:58:00,
2013-02-11 22:04:00,33.2,9.1,30.22,NW,306,3.0,3.0,36,0.00,,,0.00,Wunderground v.1.15,2013-02-12 06:04:00,
2013-02-11 22:10:00,33.2,9.1,30.22,NW,304,3.0,3.0,36,0.00,,,0.00,Wunderground v.1.15,2013-02-12 06:10:00,
2013-02-11 22:16:00,33.2,9.7,30.22,WNW,299,4.0,6.0,37,0.00,,,0.00,Wunderground v.1.15,2013-02-12 06:16:00,
2013-02-11 22:22:00,33.1,9.6,30.22,WNW,296,5.0,5.0,37,0.00,,,0.00,Wunderground v.1.15,2013-02-12 06:22:00,
2013-02-11 22:28:00,33.1,9.6,30.22,WNW,301,5.0,5.0,37,0.00,,,0.00,Wunderground v.1.15,2013-02-12 06:28:00,
2013-02-11 22:34:00,33.2,9.1,30.22,NW,304,5.0,6.0,36,0.00,,,0.00,Wunderground v.1.15,2013-02-12 06:34:00,
2013-02-11 22:40:00,33.2,9.1,30.22,WNW,302,4.0,4.0,36,0.00,,,0.00,Wunderground v.1.15,2013-02-12 06:40:00,
2013-02-11 22:46:00,33.2,9.1,30.22,NW,305,3.0,4.0,36,0.00,,,0.00,Wunderground v.1.15,2013-02-12 06:46:00,
2013-02-11 22:52:00,33.5,8.7,30.22,NW,308,2.0,2.0,35,0.00,,,0.00,Wunderground v.1.15,2013-02-12 06:52:00,
2013-02-11 22:58:00,33.7,8.9,30.22,WNW,302,2.0,4.0,35,0.00,,,0.00,Wunderground v.1.15,2013-02-12 06:58:00,
2013-02-11 23:04:00,33.7,8.9,30.22,WNW,299,3.0,5.0,35,0.00,,,0.00,Wunderground v.1.15,2013-02-12 07:04:00,
2013-02-11 23:10:00,33.7,8.9,30.22,WNW,298,4.0,4.0,35,0.00,,,0.00,Wunderground v.1.15,2013-02-12 07:10:00,
2013-02-11 23:16:00,33.8,9.0,30.22,NW,305,3.0,4.0,35,0.00,,,0.00,Wunderground v.1.15,2013-02-12 07:16:00,
2013-02-11 23:22:00,33.8,9.0,30.22,WNW,298,3.0,3.0,35,0.00,,,0.00,Wunderground v.1.15,2013-02-12 07:22:00,
2013-02-11 23:28:00,33.8,9.0,30.22,WNW,298,2.0,3.0,35,0.00,,,0.00,Wunderground v.1.15,2013-02-12 07:28:00,
2013-02-11 23:34:00,34.0,8.5,30.22,WNW,302,2.0,3.0,34,0.00,,,0.00,Wunderground v.1.15,2013-02-12 07:34:00,
2013-02-11 23:40:00,34.0,8.5,30.22,WNW,302,3.0,3.0,34,0.00,,,0.00,Wunderground v.1.15,2013-02-12 07:40:00,
2013-02-11 23:46:00,34.0,8.5,30.22,WNW,302,3.0,3.0,34,0.00,,,0.00,Wunderground v.1.15,2013-02-12 07:46:00,
2013-02-11 23:52:00,34.1,8.6,30.22,WNW,298,2.0,3.0,34,0.00,,,0.00,Wunderground v.1.15,2013-02-12 07:52:00,
2013-02-11 23:58:00,34.3,8.8,30.22,WNW,299,3.0,3.0,34,0.00,,,0.00,Wunderground v.1.15,2013-02-12 07:58:00,